Terminal Aerodrome Forecast
Issued by NWS Spokane, WA

Home | Current Version | Previous Version | Text Only | Print | Product List | Glossary On
Versions: 1 2 3 4 5 6 7 8 9 10 11 12 13 14 15 16 17 18 19 20 21 22 23 24 25 26 27 28 29 30 31 32 33 34 35 36 37 38 39 40 41
000
FTUS46 KOTX 251139
TAFEAT
TAF
KEAT 251139Z 2512/2612 VRB03KT 1/4SM FG OVC003
     FM251600 VRB03KT 1SM BR SCT004 OVC008
     FM252200 03004KT P6SM OVC015=

USA.gov is the U.S. government's official web portal to all federal, state and local government web resources and services.